This is the latest recevied weather packets stored in our database for station/object DB5ZQ. If no packets are shown the sender has not sent any weather packets the latest 10 day(s).
| Time | Temp. | Humidity | Pressure | Rain* | Wind** | Luminosity | Snow |
|---|---|---|---|---|---|---|---|
| 1777625532 | 17.78° C | 36% | 1024.1 hPa | 0 mm | - | - | - |
| 1777625232 | 17.22° C | 37% | 1024.2 hPa | 0 mm | - | - | - |
| 1777624932 | 17.22° C | 37% | 1024.2 hPa | 0 mm | - | - | - |
| 1777624631 | 17.22° C | 38% | 1024.2 hPa | 0 mm | - | - | - |
| 1777624331 | 16.67° C | 38% | 1024.2 hPa | 0 mm | - | - | - |
| 1777624031 | 16.67° C | 38% | 1024.2 hPa | 0 mm | - | - | - |
| 1777623731 | 16.67° C | 39% | 1024.4 hPa | 0 mm | - | - | - |
| 1777623430 | 16.67° C | 41% | 1024.3 hPa | 0 mm | - | - | - |
| 1777623130 | 16.67° C | 41% | 1024.3 hPa | 0 mm | - | - | - |
| 1777622830 | 16.11° C | 41% | 1024.4 hPa | 0 mm | - | - | - |
| 1777622529 | 16.11° C | 42% | 1024.3 hPa | 0 mm | - | - | - |
| 1777622229 | 15.56° C | 42% | 1024.3 hPa | 0 mm | - | - | - |
| 1777621929 | 16.11° C | 42% | 1024.3 hPa | 0 mm | - | - | - |
| 1777621328 | 15.56° C | 42% | 1024.4 hPa | 0 mm | - | - | - |
| 1777621028 | 15.56° C | 42% | 1024.4 hPa | 0 mm | - | - | - |
| 1777620728 | 15° C | 42% | 1024.5 hPa | 0 mm | - | - | - |
| 1777620427 | 15° C | 43% | 1024.4 hPa | 0 mm | - | - | - |
| 1777620127 | 15° C | 43% | 1024.4 hPa | 0 mm | - | - | - |
| 1777619827 | 15° C | 44% | 1024.4 hPa | 0 mm | - | - | - |
| 1777619527 | 15° C | 44% | 1024.4 hPa | 0 mm | - | - | - |
| 1777619226 | 15° C | 44% | 1024.4 hPa | 0 mm | - | - | - |
| 1777618926 | 14.44° C | 44% | 1024.4 hPa | 0 mm | - | - | - |
| 1777618626 | 14.44° C | 45% | 1024.5 hPa | 0 mm | - | - | - |
| 1777618325 | 14.44° C | 45% | 1024.4 hPa | 0 mm | - | - | - |
| 1777618025 | 14.44° C | 45% | 1024.5 hPa | 0 mm | - | - | - |
* Rain latest hour (hover to see other rain measurements)
** Current wind speed in m/s (hover to see current wind gust speed)